| time (UTC) | temp C | wind direction | speed KPH | gust KPH | rain 1hr cm | rain 24hr cm | rain mn cm | humidity % | barometer mb |
| 20260507162012 | 20 | 338 | 3.2 | 0.0 | 0.00 | 0.00 | 0.00 | 67 | 1017.7 |
| 20260507161950 | 20 | 338 | 1.6 | 4.8 | 0.00 | 0.00 | 0.00 | 67 | 1017.3 |
| 20260507161530 | 20 | 331 | 4.8 | 0.0 | 0.00 | 0.00 | 0.00 | 68 | 1017.8 |
| 20260507161504 | 20 | 331 | 4.8 | 0.0 | 0.00 | 0.00 | 0.00 | 68 | 1017.7 |
| 20260507161016 | 20 | 344 | 4.8 | 0.0 | 0.00 | 0.00 | 0.00 | 68 | 1017.8 |
| 20260507160951 | 20 | 344 | 3.2 | 4.8 | 0.00 | 0.00 | 0.00 | 68 | 1017.4 |
| 20260507160515 | 21 | 341 | 6.4 | 0.0 | 0.00 | 0.00 | 0.00 | 68 | 1017.9 |
| 20260507160138 | 20 | 340 | 6.4 | 0.0 | 0.00 | 0.00 | 0.00 | 67 | 1017.6 |
| 20260507160019 | 21 | 344 | 6.4 | 0.0 | 0.00 | 0.00 | 0.00 | 67 | 1017.9 |
| 20260507155523 | 21 | 343 | 4.8 | 0.0 | 0.00 | 0.00 | 0.00 | 67 | 1017.9 |
| 20260507155032 | 21 | 345 | 4.8 | 0.0 | 0.00 | 0.00 | 0.00 | 67 | 1017.9 |
| 20260507154950 | 21 | 347 | 3.2 | 4.8 | 0.00 | 0.00 | 0.00 | 67 | 1017.5 |
| 20260507154649 | 21 | 336 | 4.8 | 0.0 | 0.00 | 0.00 | 0.00 | 67 | 1017.9 |
| 20260507154516 | 21 | 331 | 4.8 | 0.0 | 0.00 | 0.00 | 0.00 | 66 | 1017.9 |
| 20260507154021 | 21 | 338 | 3.2 | 0.0 | 0.00 | 0.00 | 0.00 | 65 | 1017.8 |
| 20260507153513 | 21 | 348 | 3.2 | 0.0 | 0.00 | 0.00 | 0.00 | 67 | 1017.7 |
| 20260507153117 | 21 | 348 | 1.6 | 0.0 | 0.00 | 0.00 | 0.00 | 66 | 1017.7 |
| 20260507153017 | 21 | 348 | 1.6 | 0.0 | 0.00 | 0.00 | 0.00 | 67 | 1017.9 |
| 20260507152953 | 21 | 348 | 3.2 | 4.8 | 0.00 | 0.00 | 0.00 | 66 | 1017.4 |
| 20260507152518 | 21 | 348 | 1.6 | 0.0 | 0.00 | 0.00 | 0.00 | 65 | 1017.8 |
| 20260507152011 | 22 | 348 | 1.6 | 0.0 | 0.00 | 0.00 | 0.00 | 64 | 1017.7 |
| 20260507151949 | 22 | 348 | 3.2 | 4.8 | 0.00 | 0.00 | 0.00 | 64 | 1017.4 |
| 20260507151655 | 21 | 326 | 1.6 | 0.0 | 0.00 | 0.00 | 0.00 | 65 | 1017.7 |
| 20260507151533 | 22 | 319 | 1.6 | 0.0 | 0.00 | 0.00 | 0.00 | 65 | 1017.7 |
| 20260507151024 | 21 | 236 | 0.0 | 0.0 | 0.00 | 0.00 | 0.00 | 67 | 1017.7 |
| 20260507150950 | 21 | 236 | 1.6 | 3.2 | 0.00 | 0.00 | 0.00 | 66 | 1017.5 |
| 20260507150520 | 21 | 236 | 0.0 | 0.0 | 0.00 | 0.00 | 0.00 | 66 | 1017.7 |
| 20260507150144 | 21 | 236 | 0.0 | 0.0 | 0.00 | 0.00 | 0.00 | 67 | 1017.7 |
| 20260507150015 | 21 | 236 | 0.0 | 0.0 | 0.00 | 0.00 | 0.00 | 67 | 1017.9 |
| 20260507145949 | 21 | 236 | 0.0 | 1.6 | 0.00 | 0.00 | 0.00 | 67 | 1017.6 |
| 20260507145509 | 21 | 236 | 0.0 | 0.0 | 0.00 | 0.00 | 0.00 | 69 | 1017.8 |
| 20260507145032 | 20 | 236 | 1.6 | 0.0 | 0.00 | 0.00 | 0.00 | 70 | 1018.0 |
| 20260507144516 | 20 | 236 | 1.6 | 0.0 | 0.00 | 0.00 | 0.00 | 71 | 1017.9 |
| 20260507144051 | 20 | 236 | 1.6 | 0.0 | 0.00 | 0.00 | 0.00 | 72 | 1017.8 |
| 20260507143534 | 20 | 236 | 6.4 | 0.0 | 0.00 | 0.00 | 0.00 | 71 | 1017.9 |
| 20260507143049 | 20 | 244 | 8.0 | 0.0 | 0.00 | 0.00 | 0.00 | 70 | 1017.9 |
| 20260507143022 | 20 | 236 | 8.0 | 0.0 | 0.00 | 0.00 | 0.00 | 69 | 1018.0 |
| 20260507142951 | 20 | 242 | 9.7 | 12.9 | 0.00 | 0.00 | 0.00 | 69 | 1017.5 |
| 20260507142513 | 20 | 242 | 8.0 | 0.0 | 0.00 | 0.00 | 0.00 | 70 | 1017.8 |
| 20260507142046 | 20 | 232 | 6.4 | 0.0 | 0.00 | 0.00 | 0.00 | 69 | 1017.8 |
| 20260507141636 | 20 | 225 | 4.8 | 0.0 | 0.00 | 0.00 | 0.00 | 69 | 1017.6 |
| 20260507141528 | 20 | 227 | 4.8 | 0.0 | 0.00 | 0.00 | 0.00 | 69 | 1017.6 |
| 20260507141013 | 20 | 234 | 3.2 | 0.0 | 0.00 | 0.00 | 0.00 | 69 | 1017.7 |
| 20260507140950 | 20 | 237 | 4.8 | 8.0 | 0.00 | 0.00 | 0.00 | 70 | 1017.4 |
| 20260507140525 | 21 | 231 | 3.2 | 0.0 | 0.00 | 0.00 | 0.00 | 70 | 1017.6 |
| 20260507140010 | 21 | 243 | 3.2 | 0.0 | 0.00 | 0.00 | 0.00 | 69 | 1017.8 |
| 20260507135951 | 20 | 243 | 3.2 | 4.8 | 0.00 | 0.00 | 0.00 | 70 | 1017.4 |
| 20260507135547 | 21 | 234 | 1.6 | 0.0 | 0.00 | 0.00 | 0.00 | 71 | 1017.7 |
| 20260507135031 | 20 | 257 | 1.6 | 0.0 | 0.00 | 0.00 | 0.00 | 71 | 1017.8 |
| 20260507134951 | 20 | 257 | 1.6 | 4.8 | 0.00 | 0.00 | 0.00 | 72 | 1017.5 |
| 20260507134604 | 20 | 259 | 1.6 | 0.0 | 0.00 | 0.00 | 0.00 | 71 | 1017.8 |
| 20260507134512 | 20 | 236 | 1.6 | 0.0 | 0.00 | 0.00 | 0.00 | 70 | 1017.8 |
| 20260507134014 | 20 | 280 | 1.6 | 0.0 | 0.00 | 0.00 | 0.00 | 70 | 1017.8 |
| 20260507133950 | 20 | 280 | 1.6 | 3.2 | 0.00 | 0.00 | 0.00 | 71 | 1017.5 |
| 20260507133531 | 20 | 280 | 1.6 | 0.0 | 0.00 | 0.00 | 0.00 | 72 | 1017.9 |
| 20260507133121 | 20 | 280 | 1.6 | 0.0 | 0.00 | 0.00 | 0.00 | 73 | 1017.9 |
| 20260507133045 | 20 | 280 | 1.6 | 0.0 | 0.00 | 0.00 | 0.00 | 73 | 1018.0 |
| 20260507132951 | 20 | 280 | 1.6 | 3.2 | 0.00 | 0.00 | 0.00 | 73 | 1017.6 |
| 20260507132524 | 20 | 280 | 0.0 | 0.0 | 0.00 | 0.00 | 0.00 | 73 | 1018.0 |
| 20260507132022 | 20 | 280 | 0.0 | 0.0 | 0.00 | 0.00 | 0.00 | 75 | 1018.0 |
| 20260507131951 | 20 | 280 | 0.0 | 1.6 | 0.00 | 0.00 | 0.00 | 75 | 1017.9 |
| 20260507131645 | 19 | 280 | 0.0 | 0.0 | 0.00 | 0.00 | 0.00 | 75 | 1018.0 |
| 20260507131515 | 19 | 280 | 0.0 | 0.0 | 0.00 | 0.00 | 0.00 | 75 | 1018.1 |
| 20260507131014 | 19 | 280 | 1.6 | 0.0 | 0.00 | 0.00 | 0.00 | 76 | 1018.2 |
| 20260507130534 | 20 | 280 | 1.6 | 0.0 | 0.00 | 0.00 | 0.00 | 77 | 1018.4 |
| 20260507130026 | 20 | 280 | 1.6 | 0.0 | 0.00 | 0.00 | 0.00 | 75 | 1018.7 |
| 20260507125515 | 20 | 280 | 3.2 | 0.0 | 0.00 | 0.00 | 0.00 | 76 | 1018.6 |
| 20260507125013 | 20 | 280 | 3.2 | 0.0 | 0.00 | 0.00 | 0.00 | 77 | 1018.9 |
| 20260507124537 | 20 | 288 | 3.2 | 0.0 | 0.00 | 0.00 | 0.00 | 76 | 1018.9 |
| 20260507124008 | 20 | 284 | 4.8 | 0.0 | 0.00 | 0.00 | 0.00 | 75 | 1019.1 |
| 20260507123952 | 20 | 284 | 3.2 | 9.7 | 0.00 | 0.00 | 0.00 | 75 | 1018.9 |
| 20260507123523 | 20 | 274 | 6.4 | 0.0 | 0.00 | 0.00 | 0.00 | 74 | 1019.2 |
| 20260507123011 | 20 | 276 | 6.4 | 0.0 | 0.00 | 0.00 | 0.00 | 73 | 1019.2 |
| 20260507122950 | 20 | 282 | 6.4 | 12.9 | 0.00 | 0.00 | 0.00 | 73 | 1018.9 |
| 20260507122532 | 20 | 263 | 6.4 | 0.0 | 0.00 | 0.00 | 0.00 | 72 | 1019.3 |
| 20260507122054 | 20 | 265 | 4.8 | 0.0 | 0.00 | 0.00 | 0.00 | 74 | 1019.4 |
| 20260507121951 | 20 | 261 | 4.8 | 4.8 | 0.00 | 0.00 | 0.00 | 73 | 1019.0 |
| 20260507121523 | 20 | 246 | 4.8 | 0.0 | 0.00 | 0.00 | 0.00 | 75 | 1019.4 |
| 20260507121028 | 20 | 246 | 4.8 | 0.0 | 0.00 | 0.00 | 0.00 | 74 | 1019.4 |
| 20260507120950 | 20 | 244 | 4.8 | 11.3 | 0.00 | 0.00 | 0.00 | 74 | 1019.1 |
| 20260507120520 | 20 | 245 | 4.8 | 0.0 | 0.00 | 0.00 | 0.00 | 73 | 1019.4 |
| 20260507120012 | 20 | 236 | 4.8 | 0.0 | 0.00 | 0.00 | 0.00 | 74 | 1019.4 |
| 20260507115951 | 20 | 234 | 4.8 | 8.0 | 0.00 | 0.00 | 0.00 | 74 | 1019.1 |
| 20260507115516 | 20 | 244 | 4.8 | 0.0 | 0.00 | 0.00 | 0.00 | 74 | 1019.3 |
| 20260507115039 | 20 | 257 | 4.8 | 0.0 | 0.00 | 0.00 | 0.00 | 74 | 1019.3 |
| 20260507114951 | 20 | 266 | 3.2 | 4.8 | 0.00 | 0.00 | 0.00 | 74 | 1019.0 |
| 20260507114525 | 20 | 278 | 4.8 | 0.0 | 0.00 | 0.00 | 0.00 | 74 | 1019.4 |
| 20260507114013 | 20 | 267 | 4.8 | 0.0 | 0.00 | 0.00 | 0.00 | 74 | 1019.4 |
| 20260507113524 | 20 | 249 | 4.8 | 0.0 | 0.00 | 0.00 | 0.00 | 75 | 1019.3 |
| 20260507113142 | 20 | 251 | 4.8 | 0.0 | 0.00 | 0.00 | 0.00 | 75 | 1019.3 |
| 20260507113014 | 20 | 255 | 4.8 | 0.0 | 0.00 | 0.00 | 0.00 | 75 | 1019.2 |
| 20260507112952 | 20 | 256 | 3.2 | 4.8 | 0.00 | 0.00 | 0.00 | 75 | 1019.0 |
| 20260507112512 | 20 | 258 | 4.8 | 0.0 | 0.00 | 0.00 | 0.00 | 73 | 1019.2 |
| 20260507112027 | 20 | 259 | 4.8 | 0.0 | 0.00 | 0.00 | 0.00 | 73 | 1019.4 |
| 20260507111951 | 20 | 259 | 3.2 | 11.3 | 0.00 | 0.00 | 0.00 | 73 | 1018.9 |
| 20260507111647 | 20 | 259 | 6.4 | 0.0 | 0.00 | 0.00 | 0.00 | 71 | 1019.3 |
| 20260507111523 | 20 | 264 | 6.4 | 0.0 | 0.00 | 0.00 | 0.00 | 70 | 1019.3 |
| 20260507111017 | 21 | 257 | 4.8 | 0.0 | 0.00 | 0.00 | 0.00 | 66 | 1019.3 |
| 20260507110513 | 21 | 267 | 4.8 | 0.0 | 0.00 | 0.00 | 0.00 | 65 | 1019.3 |
| 20260507110027 | 21 | 259 | 4.8 | 0.0 | 0.00 | 0.00 | 0.00 | 65 | 1019.2 |
| 20260507105951 | 21 | 259 | 4.8 | 11.3 | 0.00 | 0.03 | 0.00 | 64 | 1018.8 |
| 20260507105518 | 21 | 252 | 6.4 | 0.0 | 0.00 | 0.00 | 0.00 | 64 | 1019.1 |
| 20260507105030 | 21 | 246 | 6.4 | 0.0 | 0.00 | 0.00 | 0.00 | 64 | 1019.2 |
| 20260507104951 | 21 | 264 | 4.8 | 11.3 | 0.00 | 0.03 | 0.00 | 64 | 1018.9 |
| 20260507104559 | 20 | 272 | 6.4 | 0.0 | 0.00 | 0.00 | 0.00 | 65 | 1019.1 |
| 20260507104538 | 21 | 271 | 6.4 | 0.0 | 0.00 | 0.00 | 0.00 | 65 | 1019.1 |
| 20260507104021 | 21 | 252 | 6.4 | 0.0 | 0.00 | 0.00 | 0.00 | 64 | 1019.0 |
| 20260507103537 | 21 | 255 | 4.8 | 0.0 | 0.00 | 0.00 | 0.00 | 64 | 1018.9 |
| 20260507103119 | 20 | 258 | 6.4 | 0.0 | 0.00 | 0.00 | 0.00 | 64 | 1018.9 |
| 20260507103014 | 21 | 266 | 6.4 | 0.0 | 0.00 | 0.00 | 0.00 | 64 | 1018.8 |
| 20260507102952 | 21 | 264 | 4.8 | 11.3 | 0.00 | 0.03 | 0.00 | 63 | 1018.6 |
| 20260507102524 | 21 | 302 | 6.4 | 0.0 | 0.00 | 0.00 | 0.00 | 65 | 1018.8 |
| 20260507102023 | 21 | 257 | 6.4 | 0.0 | 0.00 | 0.00 | 0.00 | 64 | 1018.9 |
| 20260507101951 | 21 | 253 | 6.4 | 11.3 | 0.00 | 0.03 | 0.00 | 63 | 1018.6 |
| 20260507101621 | 20 | 263 | 6.4 | 0.0 | 0.00 | 0.00 | 0.00 | 63 | 1018.7 |
| 20260507101519 | 21 | 264 | 6.4 | 0.0 | 0.00 | 0.00 | 0.00 | 63 | 1018.8 |
| 20260507101025 | 21 | 246 | 6.4 | 0.0 | 0.00 | 0.00 | 0.00 | 62 | 1018.6 |
| 20260507100952 | 21 | 273 | 4.8 | 9.7 | 0.00 | 0.03 | 0.00 | 62 | 1018.3 |
| 20260507100523 | 21 | 273 | 6.4 | 0.0 | 0.00 | 0.00 | 0.00 | 62 | 1018.6 |
| 20260507100124 | 21 | 265 | 6.4 | 0.0 | 0.00 | 0.00 | 0.00 | 62 | 1018.6 |
| 20260507100033 | 21 | 263 | 6.4 | 0.0 | 0.00 | 0.00 | 0.00 | 62 | 1018.6 |
| 20260507095951 | 21 | 259 | 4.8 | 12.9 | 0.00 | 0.03 | 0.00 | 62 | 1018.4 |
| 20260507095528 | 21 | 262 | 6.4 | 0.0 | 0.00 | 0.00 | 0.00 | 61 | 1018.6 |
| 20260507095043 | 21 | 264 | 4.8 | 0.0 | 0.00 | 0.00 | 0.00 | 60 | 1018.6 |
| 20260507094951 | 21 | 257 | 6.4 | 9.7 | 0.00 | 0.03 | 0.00 | 60 | 1018.4 |
| 20260507094609 | 21 | 259 | 4.8 | 0.0 | 0.00 | 0.00 | 0.00 | 60 | 1018.5 |
| 20260507094517 | 22 | 253 | 4.8 | 0.0 | 0.00 | 0.00 | 0.00 | 60 | 1018.5 |
| 20260507094029 | 22 | 263 | 4.8 | 0.0 | 0.00 | 0.00 | 0.00 | 59 | 1018.4 |
| 20260507093951 | 22 | 267 | 4.8 | 4.8 | 0.00 | 0.03 | 0.00 | 60 | 1018.0 |
| 20260507093517 | 22 | 286 | 4.8 | 0.0 | 0.00 | 0.00 | 0.00 | 60 | 1018.4 |
| 20260507093108 | 22 | 254 | 3.2 | 0.0 | 0.00 | 0.00 | 0.00 | 60 | 1018.4 |
| 20260507093009 | 22 | 219 | 3.2 | 0.0 | 0.00 | 0.00 | 0.00 | 59 | 1018.4 |
| 20260507092952 | 22 | 219 | 3.2 | 4.8 | 0.00 | 0.03 | 0.00 | 59 | 1018.1 |
| 20260507092525 | 22 | 268 | 3.2 | 0.0 | 0.00 | 0.00 | 0.00 | 59 | 1018.4 |
| 20260507092011 | 22 | 267 | 3.2 | 0.0 | 0.00 | 0.00 | 0.00 | 60 | 1018.5 |
| 20260507091606 | 21 | 268 | 1.6 | 0.0 | 0.00 | 0.00 | 0.00 | 60 | 1018.4 |
| 20260507091524 | 22 | 277 | 1.6 | 0.0 | 0.00 | 0.00 | 0.00 | 59 | 1018.5 |
| 20260507091040 | 22 | 5 | 1.6 | 0.0 | 0.00 | 0.00 | 0.00 | 58 | 1018.4 |
| 20260507090951 | 22 | 7 | 0.0 | 4.8 | 0.00 | 0.03 | 0.00 | 58 | 1018.1 |
| 20260507090527 | 22 | 10 | 1.6 | 0.0 | 0.00 | 0.00 | 0.00 | 59 | 1018.4 |
| 20260507090045 | 21 | 36 | 1.6 | 0.0 | 0.00 | 0.00 | 0.00 | 60 | 1018.3 |
| 20260507090013 | 22 | 36 | 1.6 | 0.0 | 0.00 | 0.00 | 0.00 | 60 | 1018.3 |
| 20260507085951 | 21 | 36 | 1.6 | 4.8 | 0.00 | 0.03 | 0.00 | 58 | 1017.9 |
| 20260507085524 | 22 | 39 | 1.6 | 0.0 | 0.00 | 0.00 | 0.00 | 58 | 1018.2 |
| 20260507085018 | 21 | 40 | 1.6 | 0.0 | 0.00 | 0.00 | 0.00 | 60 | 1018.2 |
| 20260507084951 | 21 | 55 | 1.6 | 4.8 | 0.00 | 0.03 | 0.00 | 60 | 1017.7 |
| 20260507084542 | 21 | 61 | 3.2 | 0.0 | 0.00 | 0.00 | 0.00 | 58 | 1018.1 |
| 20260507084524 | 21 | 93 | 4.8 | 0.0 | 0.00 | 0.00 | 0.00 | 59 | 1018.0 |
| 20260507084019 | 21 | 65 | 6.4 | 0.0 | 0.00 | 0.00 | 0.00 | 58 | 1018.0 |
| 20260507083952 | 21 | 71 | 4.8 | 11.3 | 0.00 | 0.03 | 0.00 | 58 | 1017.5 |
| 20260507083535 | 21 | 78 | 3.2 | 0.0 | 0.00 | 0.00 | 0.00 | 58 | 1017.9 |
| 20260507083126 | 21 | 64 | 1.6 | 0.0 | 0.00 | 0.00 | 0.00 | 59 | 1017.9 |
| 20260507083045 | 21 | 40 | 1.6 | 0.0 | 0.00 | 0.00 | 0.00 | 58 | 1017.9 |
| 20260507082951 | 21 | 73 | 1.6 | 4.8 | 0.00 | 0.03 | 0.00 | 58 | 1017.6 |
| 20260507082514 | 21 | 51 | 4.8 | 0.0 | 0.00 | 0.00 | 0.00 | 57 | 1017.9 |
| 20260507082020 | 21 | 120 | 4.8 | 0.0 | 0.00 | 0.00 | 0.00 | 57 | 1017.9 |
| 20260507081951 | 21 | 107 | 4.8 | 12.9 | 0.00 | 0.03 | 0.00 | 57 | 1017.5 |
| 20260507081603 | 21 | 78 | 4.8 | 0.0 | 0.00 | 0.00 | 0.00 | 57 | 1017.9 |
| 20260507081513 | 21 | 69 | 4.8 | 0.0 | 0.00 | 0.00 | 0.00 | 57 | 1018.0 |
| 20260507081026 | 21 | 28 | 4.8 | 0.0 | 0.00 | 0.00 | 0.00 | 56 | 1017.8 |
| 20260507080952 | 21 | 49 | 4.8 | 11.3 | 0.00 | 0.03 | 0.00 | 56 | 1017.6 |
| 20260507080513 | 21 | 42 | 4.8 | 0.0 | 0.00 | 0.00 | 0.00 | 57 | 1017.9 |
| 20260507080026 | 21 | 83 | 3.2 | 0.0 | 0.00 | 0.00 | 0.00 | 57 | 1017.8 |
| 20260507075952 | 21 | 69 | 3.2 | 8.0 | 0.00 | 0.03 | 0.00 | 57 | 1017.6 |
| 20260507075518 | 20 | 67 | 3.2 | 0.0 | 0.00 | 0.00 | 0.00 | 60 | 1018.0 |
| 20260507075024 | 20 | 70 | 3.2 | 0.0 | 0.00 | 0.00 | 0.00 | 61 | 1017.9 |
| 20260507074951 | 20 | 53 | 4.8 | 8.0 | 0.00 | 0.03 | 0.00 | 61 | 1017.8 |
| 20260507074601 | 20 | 96 | 4.8 | 0.0 | 0.00 | 0.00 | 0.00 | 61 | 1017.8 |
| 20260507074537 | 20 | 96 | 3.2 | 0.0 | 0.00 | 0.00 | 0.00 | 61 | 1018.0 |
| 20260507074028 | 20 | 80 | 3.2 | 0.0 | 0.00 | 0.00 | 0.00 | 61 | 1017.9 |
| 20260507073517 | 20 | 13 | 1.6 | 0.0 | 0.00 | 0.00 | 0.00 | 63 | 1017.9 |
| 20260507073029 | 19 | 17 | 1.6 | 0.0 | 0.00 | 0.00 | 0.00 | 62 | 1017.9 |
| 20260507073006 | 19 | 30 | 1.6 | 0.0 | 0.00 | 0.00 | 0.00 | 62 | 1017.8 |
| 20260507072952 | 19 | 30 | 3.2 | 4.8 | 0.00 | 0.03 | 0.00 | 63 | 1017.5 |
| 20260507072537 | 19 | 64 | 1.6 | 0.0 | 0.00 | 0.00 | 0.00 | 63 | 1017.9 |
| 20260507072026 | 19 | 64 | 1.6 | 0.0 | 0.00 | 0.00 | 0.00 | 63 | 1017.9 |
| 20260507071616 | 18 | 41 | 3.2 | 0.0 | 0.00 | 0.00 | 0.00 | 63 | 1017.9 |
| 20260507071558 | 19 | 41 | 3.2 | 0.0 | 0.00 | 0.00 | 0.00 | 63 | 1018.0 |
| 20260506230058 | 10 | 186 | 6.4 | 0.0 | 0.00 | 0.00 | 0.00 | 81 | 1016.7 |
| 20260506230018 | 10 | 186 | 6.4 | 0.0 | 0.00 | 0.00 | 0.00 | 81 | 1016.8 |
| 20260506225952 | 10 | 185 | 8.0 | 8.0 | 0.00 | 0.03 | 0.00 | 81 | 1016.4 |
| 20260506225534 | 10 | 186 | 4.8 | 0.0 | 0.00 | 0.00 | 0.00 | 81 | 1016.8 |
| 20260506225032 | 10 | 182 | 4.8 | 0.0 | 0.00 | 0.00 | 0.00 | 80 | 1016.9 |
| 20260506224605 | 10 | 182 | 4.8 | 0.0 | 0.00 | 0.00 | 0.00 | 81 | 1016.8 |
| 20260506224045 | 10 | 184 | 4.8 | 0.0 | 0.00 | 0.00 | 0.00 | 80 | 1016.9 |
| 20260506223110 | 10 | 185 | 4.8 | 0.0 | 0.00 | 0.00 | 0.00 | 80 | 1016.8 |
| 20260506223013 | 11 | 185 | 4.8 | 0.0 | 0.00 | 0.00 | 0.00 | 80 | 1016.8 |
| 20260506222953 | 11 | 185 | 4.8 | 8.0 | 0.00 | 0.03 | 0.00 | 80 | 1016.4 |
| 20260506222532 | 11 | 186 | 4.8 | 0.0 | 0.00 | 0.00 | 0.00 | 80 | 1016.6 |
| 20260506222023 | 11 | 189 | 3.2 | 0.0 | 0.00 | 0.00 | 0.00 | 80 | 1016.6 |
| 20260506221615 | 11 | 189 | 4.8 | 0.0 | 0.00 | 0.00 | 0.00 | 79 | 1016.7 |
| 20260506221522 | 11 | 189 | 4.8 | 0.0 | 0.00 | 0.00 | 0.00 | 79 | 1016.8 |
| 20260506221014 | 11 | 190 | 4.8 | 0.0 | 0.00 | 0.00 | 0.00 | 79 | 1016.9 |
| 20260506220953 | 11 | 190 | 4.8 | 8.0 | 0.00 | 0.03 | 0.00 | 79 | 1016.4 |
| 20260506220514 | 11 | 189 | 4.8 | 0.0 | 0.00 | 0.00 | 0.00 | 79 | 1016.7 |
| 20260506220033 | 11 | 185 | 4.8 | 0.0 | 0.00 | 0.00 | 0.00 | 78 | 1016.6 |
| 20260506220004 | 11 | 182 | 4.8 | 0.0 | 0.00 | 0.00 | 0.00 | 78 | 1016.5 |
| 20260506215953 | 11 | 180 | 4.8 | 8.0 | 0.00 | 0.03 | 0.00 | 78 | 1016.3 |
| 20260506215526 | 11 | 176 | 4.8 | 0.0 | 0.00 | 0.00 | 0.00 | 78 | 1016.5 |
| 20260506215022 | 11 | 177 | 4.8 | 0.0 | 0.00 | 0.00 | 0.00 | 78 | 1016.6 |
| 20260506214952 | 11 | 179 | 3.2 | 4.8 | 0.00 | 0.03 | 0.00 | 78 | 1016.2 |
| 20260506214539 | 11 | 197 | 4.8 | 0.0 | 0.00 | 0.00 | 0.00 | 78 | 1016.6 |
| 20260506214513 | 12 | 198 | 4.8 | 0.0 | 0.00 | 0.00 | 0.00 | 78 | 1016.6 |
| 20260506214009 | 12 | 206 | 4.8 | 0.0 | 0.00 | 0.00 | 0.00 | 77 | 1016.6 |
| 20260506213953 | 12 | 206 | 3.2 | 4.8 | 0.00 | 0.03 | 0.00 | 77 | 1016.2 |
| 20260506213529 | 12 | 206 | 4.8 | 0.0 | 0.00 | 0.00 | 0.00 | 77 | 1016.7 |
| 20260506213154 | 12 | 206 | 4.8 | 0.0 | 0.00 | 0.00 | 0.00 | 77 | 1016.6 |
| 20260506213108 | 12 | 206 | 4.8 | 0.0 | 0.00 | 0.00 | 0.00 | 77 | 1016.7 |
| 20260506212953 | 12 | 206 | 6.4 | 8.0 | 0.00 | 0.03 | 0.00 | 77 | 1016.3 |
| 20260506212513 | 12 | 200 | 3.2 | 0.0 | 0.00 | 0.00 | 0.00 | 76 | 1016.5 |
| 20260506212012 | 12 | 200 | 3.2 | 0.0 | 0.00 | 0.00 | 0.00 | 76 | 1016.6 |
| 20260506211953 | 12 | 200 | 3.2 | 4.8 | 0.00 | 0.03 | 0.00 | 76 | 1016.2 |
| 20260506211621 | 12 | 200 | 3.2 | 0.0 | 0.00 | 0.00 | 0.00 | 76 | 1016.4 |
| 20260506211528 | 12 | 200 | 3.2 | 0.0 | 0.00 | 0.00 | 0.00 | 76 | 1016.5 |
| 20260506211019 | 12 | 200 | 3.2 | 0.0 | 0.00 | 0.00 | 0.00 | 77 | 1016.5 |
| 20260506210953 | 12 | 200 | 3.2 | 4.8 | 0.00 | 0.03 | 0.00 | 77 | 1016.2 |
| 20260506210517 | 12 | 204 | 4.8 | 0.0 | 0.00 | 0.00 | 0.00 | 77 | 1016.5 |
| 20260506210031 | 13 | 225 | 4.8 | 0.0 | 0.00 | 0.00 | 0.03 | 77 | 1016.5 |
| 20260506210005 | 12 | 228 | 4.8 | 0.0 | 0.00 | 0.00 | 0.03 | 77 | 1016.3 |
| 20260506205953 | 13 | 229 | 4.8 | 4.8 | 0.00 | 0.03 | 0.00 | 77 | 1016.2 |
| 20260506205523 | 13 | 229 | 3.2 | 0.0 | 0.00 | 0.00 | 0.03 | 77 | 1016.5 |
| 20260506205042 | 13 | 242 | 3.2 | 0.0 | 0.00 | 0.00 | 0.03 | 78 | 1016.5 |
| 20260506204624 | 13 | 242 | 1.6 | 0.0 | 0.00 | 0.00 | 0.03 | 78 | 1016.5 |
| 20260506204520 | 13 | 242 | 3.2 | 0.0 | 0.00 | 0.00 | 0.03 | 78 | 1016.4 |
| 20260506204013 | 13 | 243 | 3.2 | 0.0 | 0.00 | 0.00 | 0.03 | 79 | 1016.6 |
| 20260506203952 | 13 | 243 | 1.6 | 4.8 | 0.00 | 0.03 | 0.03 | 79 | 1016.2 |
| 20260506203512 | 13 | 238 | 3.2 | 0.0 | 0.00 | 0.00 | 0.03 | 79 | 1016.6 |
| 20260506203029 | 13 | 238 | 3.2 | 0.0 | 0.00 | 0.00 | 0.03 | 79 | 1016.5 |
| 20260506203014 | 13 | 238 | 3.2 | 0.0 | 0.00 | 0.00 | 0.03 | 79 | 1016.5 |
| 20260506202952 | 13 | 238 | 3.2 | 4.8 | 0.00 | 0.03 | 0.03 | 79 | 1016.2 |
| 20260506202542 | 13 | 238 | 3.2 | 0.0 | 0.00 | 0.00 | 0.03 | 80 | 1016.5 |
| 20260506202018 | 13 | 238 | 3.2 | 0.0 | 0.00 | 0.00 | 0.03 | 80 | 1016.6 |
| 20260506201952 | 13 | 238 | 3.2 | 4.8 | 0.00 | 0.03 | 0.03 | 80 | 1016.2 |
| 20260506201630 | 13 | 238 | 3.2 | 0.0 | 0.00 | 0.00 | 0.03 | 80 | 1016.5 |
| 20260506201533 | 14 | 238 | 1.6 | 0.0 | 0.00 | 0.00 | 0.03 | 80 | 1016.4 |
| 20260506201030 | 14 | 238 | 1.6 | 0.0 | 0.00 | 0.00 | 0.03 | 79 | 1016.3 |
| 20260506200953 | 14 | 238 | 3.2 | 4.8 | 0.00 | 0.03 | 0.03 | 79 | 1016.0 |
| 20260506200523 | 14 | 238 | 1.6 | 0.0 | 0.00 | 0.00 | 0.03 | 80 | 1016.3 |
| 20260506200124 | 14 | 238 | 1.6 | 0.0 | 0.00 | 0.00 | 0.03 | 81 | 1016.3 |
| 20260506200019 | 14 | 238 | 1.6 | 0.0 | 0.00 | 0.00 | 0.03 | 81 | 1016.3 |
| 20260506195952 | 14 | 252 | 1.6 | 4.8 | 0.00 | 0.03 | 0.03 | 81 | 1016.0 |
| 20260506195510 | 14 | 261 | 0.0 | 0.0 | 0.00 | 0.00 | 0.03 | 81 | 1016.2 |
| 20260506195030 | 14 | 261 | 0.0 | 0.0 | 0.00 | 0.00 | 0.03 | 81 | 1016.3 |
| 20260506194953 | 14 | 261 | 0.0 | 1.6 | 0.00 | 0.03 | 0.03 | 81 | 1016.0 |
| 20260506194618 | 14 | 261 | 0.0 | 0.0 | 0.00 | 0.00 | 0.03 | 81 | 1016.3 |
| 20260506194508 | 15 | 261 | 0.0 | 0.0 | 0.00 | 0.00 | 0.03 | 81 | 1016.3 |
| 20260506194020 | 15 | 261 | 1.6 | 0.0 | 0.00 | 0.00 | 0.03 | 81 | 1016.1 |
| 20260506193952 | 15 | 261 | 0.0 | 4.8 | 0.00 | 0.03 | 0.03 | 81 | 1016.0 |
| 20260506193522 | 15 | 261 | 1.6 | 0.0 | 0.00 | 0.00 | 0.03 | 81 | 1016.3 |
| 20260506193029 | 14 | 261 | 1.6 | 0.0 | 0.00 | 0.00 | 0.03 | 81 | 1016.0 |
| 20260506193011 | 15 | 261 | 3.2 | 0.0 | 0.00 | 0.00 | 0.03 | 81 | 1016.1 |
| 20260506192527 | 15 | 261 | 3.2 | 0.0 | 0.00 | 0.00 | 0.03 | 80 | 1016.1 |
| 20260506192043 | 15 | 261 | 4.8 | 0.0 | 0.00 | 0.00 | 0.03 | 81 | 1016.0 |
| 20260506191953 | 15 | 261 | 4.8 | 4.8 | 0.00 | 0.03 | 0.03 | 80 | 1015.6 |
| 20260506191621 | 15 | 273 | 6.4 | 0.0 | 0.00 | 0.00 | 0.03 | 80 | 1015.9 |
| 20260506191520 | 15 | 273 | 6.4 | 0.0 | 0.00 | 0.00 | 0.03 | 80 | 1015.9 |
| 20260506191010 | 15 | 284 | 3.2 | 0.0 | 0.00 | 0.00 | 0.03 | 80 | 1015.9 |
| 20260506190508 | 15 | 265 | 3.2 | 0.0 | 0.00 | 0.00 | 0.03 | 79 | 1015.9 |
| 20260506190026 | 15 | 264 | 3.2 | 0.0 | 0.00 | 0.00 | 0.03 | 78 | 1015.7 |
| 20260506190007 | 15 | 264 | 4.8 | 0.0 | 0.00 | 0.00 | 0.03 | 78 | 1015.7 |
| 20260506185953 | 15 | 264 | 3.2 | 4.8 | 0.00 | 0.03 | 0.03 | 78 | 1015.3 |
| 20260506185537 | 16 | 266 | 4.8 | 0.0 | 0.00 | 0.00 | 0.03 | 77 | 1015.7 |
| 20260506185013 | 16 | 288 | 3.2 | 0.0 | 0.00 | 0.00 | 0.03 | 77 | 1015.5 |
| 20260506184954 | 16 | 288 | 3.2 | 4.8 | 0.00 | 0.03 | 0.03 | 77 | 1015.3 |
| 20260506184623 | 16 | 287 | 4.8 | 0.0 | 0.00 | 0.00 | 0.03 | 76 | 1015.7 |
| 20260506184532 | 16 | 278 | 4.8 | 0.0 | 0.00 | 0.00 | 0.03 | 76 | 1015.7 |
| 20260506184024 | 16 | 269 | 8.0 | 0.0 | 0.00 | 0.00 | 0.03 | 75 | 1015.7 |
| 20260506183954 | 16 | 274 | 8.0 | 11.3 | 0.00 | 0.03 | 0.03 | 75 | 1015.1 |
| 20260506183524 | 16 | 270 | 6.4 | 0.0 | 0.00 | 0.00 | 0.03 | 74 | 1015.6 |
| 20260506183041 | 16 | 281 | 6.4 | 0.0 | 0.00 | 0.00 | 0.03 | 73 | 1015.5 |
| 20260506183017 | 17 | 299 | 6.4 | 0.0 | 0.00 | 0.00 | 0.03 | 73 | 1015.5 |
| 20260506182515 | 17 | 314 | 9.7 | 0.0 | 0.00 | 0.00 | 0.03 | 72 | 1015.4 |
| 20260506182032 | 17 | 281 | 11.3 | 0.0 | 0.00 | 0.00 | 0.03 | 71 | 1015.2 |
| 20260506181601 | 18 | 285 | 9.7 | 0.0 | 0.00 | 0.00 | 0.03 | 69 | 1014.8 |
| 20260506181523 | 18 | 294 | 9.7 | 0.0 | 0.00 | 0.00 | 0.03 | 69 | 1015.1 |
| 20260506181022 | 18 | 277 | 8.0 | 0.0 | 0.00 | 0.00 | 0.03 | 66 | 1014.9 |
| 20260506180953 | 18 | 279 | 8.0 | 12.9 | 0.00 | 0.03 | 0.03 | 66 | 1014.5 |
| 20260506180514 | 19 | 271 | 8.0 | 0.0 | 0.00 | 0.00 | 0.03 | 64 | 1014.9 |
| 20260506180118 | 20 | 269 | 9.7 | 0.0 | 0.00 | 0.00 | 0.03 | 62 | 1014.6 |
| 20260506180013 | 20 | 269 | 8.0 | 0.0 | 0.00 | 0.00 | 0.03 | 61 | 1014.8 |
| 20260506175953 | 20 | 271 | 9.7 | 12.9 | 0.00 | 0.03 | 0.03 | 61 | 1014.4 |
| 20260506175531 | 21 | 265 | 6.4 | 0.0 | 0.00 | 0.00 | 0.03 | 58 | 1014.6 |
| 20260506175022 | 21 | 262 | 3.2 | 0.0 | 0.00 | 0.00 | 0.03 | 53 | 1014.6 |
| 20260506174953 | 21 | 262 | 4.8 | 11.3 | 0.00 | 0.03 | 0.03 | 52 | 1014.3 |
| 20260506174615 | 21 | 263 | 3.2 | 0.0 | 0.00 | 0.00 | 0.03 | 48 | 1014.7 |
| 20260506174521 | 21 | 263 | 3.2 | 0.0 | 0.00 | 0.00 | 0.03 | 48 | 1014.6 |
| 20260506174016 | 22 | 323 | 1.6 | 0.0 | 0.00 | 0.00 | 0.03 | 48 | 1014.6 |
| 20260506173953 | 22 | 323 | 1.6 | 4.8 | 0.00 | 0.03 | 0.03 | 50 | 1014.2 |
| 20260506173520 | 22 | 321 | 3.2 | 0.0 | 0.00 | 0.00 | 0.03 | 49 | 1014.5 |
| 20260506173044 | 22 | 36 | 3.2 | 0.0 | 0.00 | 0.00 | 0.03 | 49 | 1014.4 |
| 20260506173013 | 22 | 36 | 3.2 | 0.0 | 0.00 | 0.00 | 0.03 | 49 | 1014.4 |
| 20260506172953 | 22 | 36 | 3.2 | 4.8 | 0.00 | 0.03 | 0.03 | 48 | 1014.0 |
| 20260506172514 | 23 | 36 | 1.6 | 0.0 | 0.00 | 0.00 | 0.03 | 49 | 1014.3 |
| 20260506172008 | 23 | 42 | 3.2 | 0.0 | 0.00 | 0.00 | 0.03 | 45 | 1014.2 |
| 20260506171954 | 23 | 46 | 1.6 | 9.7 | 0.00 | 0.03 | 0.03 | 46 | 1013.8 |
| 20260506171602 | 23 | 21 | 4.8 | 0.0 | 0.00 | 0.00 | 0.03 | 39 | 1014.1 |
| 20260506171526 | 23 | 21 | 4.8 | 0.0 | 0.00 | 0.00 | 0.03 | 38 | 1014.0 |
| 20260506171048 | 23 | 209 | 6.4 | 0.0 | 0.00 | 0.00 | 0.03 | 39 | 1014.2 |
| 20260506170528 | 24 | 249 | 9.7 | 0.0 | 0.00 | 0.00 | 0.03 | 37 | 1014.0 |
| 20260506170110 | 23 | 234 | 11.3 | 0.0 | 0.00 | 0.00 | 0.03 | 36 | 1013.8 |
| 20260506170039 | 24 | 227 | 11.3 | 0.0 | 0.00 | 0.00 | 0.03 | 36 | 1013.9 |
| 20260506165953 | 24 | 225 | 11.3 | 19.3 | 0.00 | 0.03 | 0.03 | 35 | 1013.6 |
| 20260506165518 | 24 | 204 | 9.7 | 0.0 | 0.00 | 0.00 | 0.03 | 37 | 1013.9 |
| 20260506165011 | 25 | 227 | 9.7 | 0.0 | 0.00 | 0.00 | 0.03 | 35 | 1013.9 |
| 20260506164954 | 25 | 223 | 11.3 | 20.9 | 0.00 | 0.03 | 0.03 | 36 | 1013.5 |
| 20260506164603 | 25 | 221 | 9.7 | 0.0 | 0.00 | 0.00 | 0.03 | 37 | 1013.9 |
| 20260506164511 | 25 | 217 | 9.7 | 0.0 | 0.00 | 0.00 | 0.03 | 36 | 1014.0 |
| 20260506164031 | 25 | 223 | 11.3 | 0.0 | 0.00 | 0.00 | 0.03 | 35 | 1013.9 |
| 20260506163524 | 25 | 225 | 11.3 | 0.0 | 0.00 | 0.00 | 0.03 | 33 | 1013.9 |
| 20260506163124 | 25 | 221 | 11.3 | 0.0 | 0.00 | 0.00 | 0.03 | 36 | 1013.9 |
| 20260506163023 | 25 | 223 | 11.3 | 0.0 | 0.00 | 0.00 | 0.03 | 35 | 1013.9 |
| 20260506162953 | 25 | 215 | 9.7 | 19.3 | 0.00 | 0.03 | 0.03 | 35 | 1013.6 |
| 20260506162518 | 26 | 228 | 12.9 | 0.0 | 0.00 | 0.00 | 0.03 | 35 | 1013.7 |